Covington, KY

9:04 AM EST on December 16, 2017 (GMT -0500)
Cincinnati-Northern KY International

Weather History for KCVG - April, 2013

Change the Weather History Date:

Sunday, April 7, 2013

  Actual Average Record
Temperature  
Mean Temperature 65 °F 51 °F  
Max Temperature 73 °F 62 °F 85 °F (2001)
Min Temperature 56 °F 41 °F 19 °F (1996)
Degree Days  
Heating Degree Days 0 14  
Month to date heating degree days 132 105  
Since 1 July heating degree days 4697 4598  
Cooling Degree Days 0 0  
Month to date cooling degree days 0 0  
Year to date cooling degree days 0 0  
Growing Degree Days 14 (Base 50)    
Moisture  
Dew Point 44 °F    
Average Humidity 69    
Maximum Humidity 100    
Minimum Humidity 37    
Precipitation  
Precipitation 0.25 in 0.13 in 1.45 in (1972)
Month to date precipitation 0.25 0.87  
Year to date precipitation 9.76 10.64  
Snow  
Snow 0.00 in 0.00 in 1.70 in (1985)
Month to date snowfall T 0.2  
Since 1 July snowfall 25.2 21.8  
Snow Depth 0.00 in    
Sea Level Pressure  
Sea Level Pressure 29.92 in    
Wind  
Wind Speed 11 mph (SSW)    
Max Wind Speed 21 mph    
Max Gust Speed 29 mph    
Visibility 10 miles    
Events Rain    
T = Trace of Precipitation, MM = Missing Value Source: NWS Daily Summary

Daily Weather History Graph

Daily Weather History Graph

Search for Another Location

Airport or City:

Trip Planner

Search our weather history database for the weather conditions in past years. The results will help you decide how hot, cold, wet, or windy it might be!

Date:

Astronomy

Apr. 07, 2013 Rise Set
Actual Time 7:13 AM EDT 8:08 PM EDT
Civil Twilight 6:46 AM EDT 8:35 PM EDT
Nautical Twilight 6:14 AM EDT 9:08 PM EDT
Astronomical Twilight 5:40 AM EDT 9:41 PM EDT
Moon 5:29 AM EDT (4/7) 5:40 PM EDT (4/7)
Length of Visible Light 13h 49m
Length of Day
12h 54m
Waning Crescent, 8% of the Moon is Illuminated
Apr 7
Waning Crescent
Apr 10
New
Apr 18
First Quarter
Apr 25
Full
May 2
Last Quarter

Hourly Weather History & Observations

Time (EDT) Temp. Dew Point Humidity Pressure Visibility Wind Dir Wind Speed Gust Speed Precip Events Conditions
12:52 AM 57.9 °F 35.1 °F 42% 29.89 in 10.0 mi South 10.4 mph - N/A   Mostly Cloudy
1:52 AM 59.0 °F 35.1 °F 41% 29.89 in 10.0 mi South 11.5 mph - N/A   Overcast
2:52 AM 59.0 °F 34.0 °F 39% 29.88 in 10.0 mi SSW 13.8 mph 24.2 mph N/A   Mostly Cloudy
3:52 AM 59.0 °F 35.1 °F 41% 29.87 in 10.0 mi South 11.5 mph - N/A   Mostly Cloudy
4:52 AM 59.0 °F 36.0 °F 42% 29.86 in 10.0 mi SSW 12.7 mph 21.9 mph N/A   Mostly Cloudy
5:52 AM 59.0 °F 37.0 °F 44% 29.87 in 10.0 mi SSW 13.8 mph 21.9 mph N/A   Scattered Clouds
6:52 AM 59.0 °F 37.9 °F 46% 29.88 in 10.0 mi SSW 12.7 mph - N/A   Scattered Clouds
7:52 AM 57.9 °F 37.9 °F 47% 29.90 in 10.0 mi SSW 10.4 mph - N/A   Mostly Cloudy
8:52 AM 60.1 °F 39.0 °F 46% 29.92 in 10.0 mi SSW 9.2 mph - N/A   Overcast
9:52 AM 62.1 °F 39.9 °F 44% 29.93 in 10.0 mi SW 11.5 mph 21.9 mph N/A   Mostly Cloudy
10:52 AM 66.0 °F 42.1 °F 42% 29.93 in 10.0 mi WSW 11.5 mph 20.7 mph N/A   Mostly Cloudy
11:52 AM 66.2 °F 42.8 °F 43% 29.95 in 10.0 mi WSW 12.7 mph 20.7 mph N/A   Mostly Cloudy
12:52 PM 69.1 °F 45.0 °F 42% 29.94 in 10.0 mi SW 13.8 mph 18.4 mph N/A   Mostly Cloudy
1:52 PM 72.0 °F 45.0 °F 38% 29.93 in 10.0 mi SSW 10.4 mph 21.9 mph N/A   Mostly Cloudy
2:52 PM 71.1 °F 45.0 °F 39% 29.93 in 10.0 mi SW 10.4 mph 19.6 mph N/A   Mostly Cloudy
3:52 PM 70.0 °F 46.0 °F 42% 29.93 in 10.0 mi WSW 6.9 mph 17.3 mph N/A   Overcast
4:52 PM 71.1 °F 46.9 °F 42% 29.93 in 10.0 mi SSW 8.1 mph - N/A   Mostly Cloudy
5:52 PM 71.1 °F 48.0 °F 44% 29.93 in 10.0 mi SSW 13.8 mph 19.6 mph N/A   Mostly Cloudy
6:52 PM 64.0 °F 53.1 °F 67% 29.95 in 10.0 mi SSW 10.4 mph - N/A   Mostly Cloudy
7:52 PM 63.0 °F 55.0 °F 75% 29.94 in 10.0 mi South 5.8 mph - N/A   Overcast
8:52 PM 62.1 °F 54.0 °F 75% 29.96 in 10.0 mi SE 5.8 mph - N/A   Overcast
9:52 PM 59.0 °F 55.0 °F 87% 29.97 in 7.0 mi South 8.1 mph - 0.02 in Rain Light Rain
10:52 PM 57.0 °F 57.0 °F 100% 29.99 in 4.0 mi NW 15.0 mph 19.6 mph 0.14 in Rain Light Rain
11:52 PM 57.0 °F 55.9 °F 96% 29.99 in 10.0 mi NNW 10.4 mph - 0.09 in Rain Light Rain